• In Hungary
  • List of Countries
  • For 7 days
  • Water Temperature
  • Satellite Maps
  • Weather Map
  • News
  • Weather Widgets
  • user-avatar
    Login

    Hourly Weather Yalta

    Today, 25 September, Tuesday

    Time Temperature Precipitation Wind Pressure Humidity
    00:00 +17°C° 0 mm 4 mps 720 mmHg 85%
    01:00 +15°C° 0 mm 5 mps 720 mmHg 87%
    02:00 +15°C° 0 mm 6 mps 720 mmHg 90%
    03:00 +12°C° 0 mm 7 mps 720 mmHg 88%
    04:00 +11°C° 0 mm 7 mps 721 mmHg 87%
    05:00 +10°C° 0 mm 8 mps 721 mmHg 86%
    06:00 +10°C° 0.2 mm 7 mps 722 mmHg 86%
    07:00 +9°C° 0.2 mm 7 mps 722 mmHg 87%
    08:00 +8°C° 0.2 mm 7 mps 723 mmHg 87%
    09:00 +8°C° 0.2 mm 7 mps 723 mmHg 86%
    10:00 +9°C° 0.2 mm 7 mps 724 mmHg 84%
    11:00 +9°C° 0.2 mm 6 mps 725 mmHg 82%
    12:00 +9°C° 0.1 mm 6 mps 725 mmHg 77%
    13:00 +10°C° 0.1 mm 6 mps 725 mmHg 72%
    14:00 +10°C° 0.1 mm 6 mps 726 mmHg 67%
    15:00 +10°C° 0 mm 6 mps 726 mmHg 66%
    16:00 +10°C° 0 mm 5 mps 726 mmHg 65%
    17:00 +10°C° 0 mm 5 mps 726 mmHg 64%
    18:00 +9°C° 0.1 mm 5 mps 727 mmHg 67%
    19:00 +8°C° 0.1 mm 5 mps 727 mmHg 70%
    20:00 +7°C° 0.1 mm 4 mps 728 mmHg 73%
    21:00 +7°C° 0.1 mm 5 mps 728 mmHg 75%
    22:00 +6°C° 0.1 mm 5 mps 728 mmHg 77%
    23:00 +6°C° 0.1 mm 5 mps 728 mmHg 79%

    Tomorrow, 26 September, Wednesday

    Time Temperature Precipitation Wind Pressure Humidity
    00:00 +6°C° 0 mm 5 mps 729 mmHg 80%
    01:00 +5°C° 0 mm 5 mps 729 mmHg 82%
    02:00 +5°C° 0 mm 5 mps 729 mmHg 83%
    03:00 +5°C° 0 mm 5 mps 729 mmHg 85%
    04:00 +3°C° 0 mm 5 mps 729 mmHg 86%
    05:00 +3°C° 0 mm 5 mps 730 mmHg 88%
    06:00 +5°C° 0 mm 5 mps 730 mmHg 81%
    07:00 +6°C° 0 mm 5 mps 731 mmHg 75%
    08:00 +7°C° 0 mm 5 mps 731 mmHg 69%
    09:00 +8°C° 0 mm 5 mps 731 mmHg 60%
    10:00 +9°C° 0 mm 5 mps 731 mmHg 52%
    11:00 +10°C° 0 mm 5 mps 732 mmHg 43%
    12:00 +12°C° 0 mm 5 mps 732 mmHg 42%
    13:00 +12°C° 0 mm 5 mps 732 mmHg 41%
    14:00 +12°C° 0 mm 5 mps 732 mmHg 40%
    15:00 +10°C° 0 mm 5 mps 732 mmHg 43%
    16:00 +10°C° 0 mm 5 mps 732 mmHg 46%
    17:00 +9°C° 0 mm 5 mps 732 mmHg 49%
    18:00 +8°C° 0 mm 5 mps 732 mmHg 52%
    19:00 +7°C° 0 mm 5 mps 732 mmHg 55%
    20:00 +6°C° 0 mm 5 mps 732 mmHg 58%
    21:00 +5°C° 0 mm 5 mps 732 mmHg 59%
    22:00 +5°C° 0 mm 4 mps 733 mmHg 59%
    23:00 +5°C° 0 mm 4 mps 733 mmHg 60%

    Day after tomorrow, 27 September, Thursday

    Time Temperature Precipitation Wind Pressure Humidity
    00:00 +5°C° 0 mm 4 mps 733 mmHg 61%
    01:00 +4°C° 0 mm 4 mps 733 mmHg 63%
    02:00 +4°C° 0 mm 4 mps 732 mmHg 64%
    03:00 +4°C° 0 mm 4 mps 732 mmHg 67%
    04:00 +4°C° 0 mm 4 mps 732 mmHg 70%
    05:00 +4°C° 0 mm 4 mps 732 mmHg 72%
    06:00 +5°C° 0 mm 4 mps 732 mmHg 68%
    07:00 +6°C° 0 mm 4 mps 732 mmHg 64%
    08:00 +9°C° 0 mm 3 mps 733 mmHg 59%
    09:00 +10°C° 0 mm 3 mps 732 mmHg 54%
    10:00 +12°C° 0 mm 3 mps 732 mmHg 48%
    11:00 +14°C° 0 mm 2 mps 732 mmHg 42%
    12:00 +15°C° 0 mm 2 mps 732 mmHg 41%
    13:00 +15°C° 0 mm 2 mps 732 mmHg 39%
    14:00 +15°C° 0 mm 2 mps 732 mmHg 38%
    15:00 +14°C° 0 mm 2 mps 731 mmHg 41%
    16:00 +13°C° 0 mm 2 mps 731 mmHg 45%
    17:00 +12°C° 0 mm 2 mps 731 mmHg 48%
    18:00 +11°C° 0 mm 1 mps 731 mmHg 51%
    19:00 +10°C° 0 mm 1 mps 731 mmHg 54%
    20:00 +9°C° 0 mm 1 mps 731 mmHg 56%
    21:00 +9°C° 0 mm 1 mps 731 mmHg 57%
    22:00 +9°C° 0 mm 1 mps 730 mmHg 59%
    23:00 +8°C° 0 mm 1 mps 730 mmHg 60%

    28 September, Friday

    Time Temperature Precipitation Wind Pressure Humidity
    00:00 +8°C° 0 mm 1 mps 730 mmHg 59%
    01:00 +8°C° 0 mm 1 mps 730 mmHg 59%
    02:00 +8°C° 0 mm 1 mps 730 mmHg 59%
    03:00 +8°C° 0 mm 1 mps 729 mmHg 59%
    04:00 +8°C° 0 mm 1 mps 729 mmHg 58%
    05:00 +8°C° 0 mm 1 mps 729 mmHg 58%
    06:00 +10°C° 0 mm 1 mps 729 mmHg 54%
    07:00 +12°C° 0 mm 1 mps 729 mmHg 50%
    08:00 +14°C° 0 mm 1 mps 729 mmHg 45%
    09:00 +15°C° 0 mm 1 mps 729 mmHg 43%
    10:00 +18°C° 0 mm 1 mps 729 mmHg 41%
    11:00 +19°C° 0 mm 1 mps 729 mmHg 39%
    12:00 +19°C° 0 mm 2 mps 728 mmHg 39%
    13:00 +19°C° 0 mm 2 mps 728 mmHg 40%
    14:00 +19°C° 0 mm 2 mps 727 mmHg 40%
    15:00 +18°C° 0 mm 2 mps 727 mmHg 46%
    16:00 +17°C° 0 mm 2 mps 726 mmHg 52%
    17:00 +16°C° 0 mm 2 mps 726 mmHg 57%
    18:00 +15°C° 0 mm 2 mps 726 mmHg 62%
    19:00 +14°C° 0 mm 1 mps 726 mmHg 66%
    20:00 +13°C° 0 mm 1 mps 726 mmHg 70%
    21:00 +12°C° 0 mm 1 mps 725 mmHg 72%
    22:00 +12°C° 0 mm 2 mps 725 mmHg 73%
    23:00 +12°C° 0 mm 2 mps 725 mmHg 75%

    29 September, Saturday

    Time Temperature Precipitation Wind Pressure Humidity
    00:00 +12°C° 0 mm 2 mps 724 mmHg 75%
    01:00 +12°C° 0 mm 2 mps 724 mmHg 75%
    02:00 +12°C° 0 mm 2 mps 724 mmHg 74%
    03:00 +11°C° 0 mm 3 mps 724 mmHg 73%
    04:00 +10°C° 0 mm 3 mps 723 mmHg 72%
    05:00 +10°C° 0 mm 3 mps 723 mmHg 71%
    06:00 +12°C° 0 mm 3 mps 723 mmHg 66%
    07:00 +13°C° 0 mm 4 mps 723 mmHg 62%
    08:00 +14°C° 0 mm 4 mps 723 mmHg 58%
    09:00 +17°C° 0 mm 4 mps 723 mmHg 53%
    10:00 +18°C° 0 mm 4 mps 723 mmHg 47%
    11:00 +19°C° 0 mm 3 mps 723 mmHg 42%
    12:00 +20°C° 0 mm 4 mps 722 mmHg 41%
    13:00 +20°C° 0 mm 4 mps 722 mmHg 39%
    14:00 +21°C° 0 mm 4 mps 722 mmHg 37%
    15:00 +19°C° 0 mm 4 mps 722 mmHg 43%
    16:00 +18°C° 0 mm 4 mps 722 mmHg 48%
    17:00 +17°C° 0 mm 4 mps 721 mmHg 54%
    18:00 +15°C° 0 mm 4 mps 722 mmHg 58%
    19:00 +14°C° 0 mm 4 mps 722 mmHg 63%
    20:00 +13°C° 0 mm 4 mps 722 mmHg 67%
    21:00 +13°C° 0 mm 4 mps 722 mmHg 68%
    22:00 +12°C° 0 mm 4 mps 722 mmHg 69%
    23:00 +12°C° 0 mm 4 mps 722 mmHg 71%

    30 September, Sunday

    Time Temperature Precipitation Wind Pressure Humidity
    00:00 +12°C° 0 mm 4 mps 722 mmHg 70%
    01:00 +12°C° 0 mm 4 mps 722 mmHg 69%
    02:00 +12°C° 0 mm 3 mps 722 mmHg 68%
    03:00 +12°C° 0.1 mm 4 mps 722 mmHg 70%
    04:00 +12°C° 0.1 mm 4 mps 722 mmHg 72%
    05:00 +12°C° 0.1 mm 5 mps 722 mmHg 74%
    06:00 +13°C° 0.1 mm 5 mps 722 mmHg 73%
    07:00 +14°C° 0.1 mm 5 mps 722 mmHg 73%
    08:00 +15°C° 0.1 mm 5 mps 722 mmHg 72%
    09:00 +17°C° 0.1 mm 5 mps 722 mmHg 66%
    10:00 +20°C° 0.1 mm 4 mps 722 mmHg 60%
    11:00 +22°C° 0.1 mm 4 mps 722 mmHg 54%
    12:00 +22°C° 0 mm 4 mps 722 mmHg 54%
    13:00 +22°C° 0 mm 4 mps 722 mmHg 55%
    14:00 +23°C° 0 mm 4 mps 722 mmHg 55%
    15:00 +21°C° 0.1 mm 4 mps 722 mmHg 61%
    16:00 +20°C° 0.1 mm 4 mps 721 mmHg 67%
    17:00 +19°C° 0.1 mm 4 mps 721 mmHg 73%
    18:00 +18°C° 0.2 mm 4 mps 721 mmHg 77%
    19:00 +17°C° 0.2 mm 4 mps 721 mmHg 80%
    20:00 +17°C° 0.2 mm 4 mps 721 mmHg 84%
    21:00 +15°C° 0.2 mm 4 mps 721 mmHg 84%
    22:00 +16°C° 0.2 mm 3 mps 721 mmHg 84%
    23:00 +16°C° 0.2 mm 3 mps 720 mmHg 84%
    Show more